Regional Weather Roundup
Issued by NWS Sioux Falls, SD

Home | Current Version | Previous Version | Text Only | Print | Product List | Glossary Off
Versions: 1 2 3 4 5 6 7 8 9 10 11 12 13 14 15 16 17 18 19 20 21 22 23 24 25 26 27 28 29 30 31 32 33 34 35 36 37 38 39 40 41 42 43 44 45 46 47 48 49 50

000
ASUS43 KFSD 250002
RWRFSD

WEATHER ROUNDUP FOR SE SOUTH DAKOTA/SW MINNESOTA/NW IOWA
NATIONAL WEATHER SERVICE SIOUX FALLS SD
700 PM CDT SUN MAY 24 2015

NOTE: "FAIR" INDICATES FEW OR NO CLOUDS BELOW 12,000 FEET WITH NO
SIGNIFICANT WEATHER AND OR OBSTRUCTIONS TO VISIBILITY.


SDZ038>040-050-052>070-250100-
SOUTHEAST SOUTH DAKOTA

CITY           SKY/WX    TMP DP  RH WIND       PRES   REMARKS
BROOKINGS      CLOUDY    59  57  94 NE7       29.83F
CHAMBERLAIN    CLOUDY    60  59  98 NE6       29.82F FOG
6HR MIN TEMP:  59; 6HR MAX TEMP:  62;

HURON          CLOUDY    61  59  93 E7        29.82F
6HR MIN TEMP:  60; 6HR MAX TEMP:  63; 6HR PCP:  0.02;

MADISON        RAIN      57  57 100 E13       29.82S
MITCHELL       CLOUDY    63  60  90 NE9       29.81F
6HR MIN TEMP:  62; 6HR MAX TEMP:  64; 6HR PCP:  0.08;

SIOUX FALLS    LGT RAIN  61  59  93 NE8       29.79F
6HR MIN TEMP:  61; 6HR MAX TEMP:  63; 6HR PCP:  0.08;

WINNER         CLOUDY    62  58  86 E9        29.81F
YANKTON        CLOUDY    61  59  94 NW3       29.78F
$$

MNZ071-072-080-081-089-090-097-098-250100-
SOUTHWEST MINNESOTA

CITY           SKY/WX    TMP DP  RH WIND       PRES   REMARKS
FAIRMONT       CLOUDY    61  55  82 E8        29.79F
JACKSON        CLOUDY    61  61 100 NE7       29.80F FOG
LUVERNE        LGT RAIN  61  59  94 NE3       29.80F
MARSHALL       CLOUDY    59  54  82 E10       29.82F
6HR MIN TEMP:  59; 6HR MAX TEMP:  61; 6HR PCP:  0.06;

MONTEVIDEO     DRIZZLE   61  61 100 E13       29.86F
REDWOOD FALLS  RAIN      60  58  92 E12G20    29.82F FOG
TRACY          DRIZZLE   60  59  97 E10       29.82F
WINDOM         DRIZZLE   61  57  88 NE8       29.80F
WORTHINGTON    CLOUDY    59  57  94 NE8       29.80F
$$

IAZ001>003-012>014-020>022-031-032-NEZ013-014-SDZ071-250100-
NORTHWEST IOWA

CITY           SKY/WX    TMP DP  RH WIND       PRES   REMARKS
DENISON        CLOUDY    66  66 100 W3        29.77S
ESTHERVILLE    FOG       61  61 100 SE5       29.78F VSB 1
SIOUX CITY     CLOUDY    64  60  87 CALM      29.78F FOG
6HR MIN TEMP:  63; 6HR MAX TEMP:  67; 6HR PCP:  0.01;

SPENCER        LGT RAIN  64  62  93 SE5       29.78F
6HR MIN TEMP:  61; 6HR MAX TEMP:  64; 6HR PCP:  0.01;

$$

ABBREVIATIONS USED IN REMARKS
   TC - TEMPERATURE IN CELSIUS
  WCI - WIND CHILL INDEX
   HX - HEAT INDEX
  VSB - VISIBILITY



USA.gov is the U.S. government's official web portal to all federal, state and local government web resources and services.